Home > Time Zones > World Clock > Weather > U.S.A. > Hilo > Past weeks

Flag for U.S.A. Weather past 2 weeks in Hilo, Hawaii, U.S.A.

Now
72 °F

Partly cloudy.


Feels Like: 73 °F
Forecast: 71 / 83 °F
Wind: 6 mph from Southwest

Location: Hilo International Airport

Current Time: Sep 30, 2014 at 7:16:53 AM

Latest Report: Sep 30, 2014 at 5:53 AM


Visibility: 10 mi

Pressure: 29.94 "Hg

Humidity: 78%

Dew point: 65 °F

Location of HiloLocation

Historic Weather in Hilo — Graph

°F

Hilo temperature yesterday

Maximum temperature yesterday: 88 °F (at 10:53 AM)
Minimum temperature yesterday: 72 °F (at 4:53 AM)
Average temperature yesterday: 80 °F

Past Weeks' High & Low Weather Summary

 TemperatureHumidityPressure
High91 °F (Sep 26, 12:53 PM)100% (Sep 28, 2:29 AM)30.08 "Hg (Sep 28, 2:29 AM)
Low70 °F (Sep 18, 3:53 AM)46% (Sep 26, 10:53 AM)29.86 "Hg (Sep 19, 2:53 PM)
Average79 °F74%29.97 "Hg
* Reported Sep 15 5:53 AM — Sep 30 5:53 AM, Hilo, Weather by CustomWeather, © 2014

Note: Actual official high and low records may vary slightly from our data, if they occured in-between our weather recording intervals... More about our weather records

Advertising

Hilo weather history for previous 24 hours

 ConditionsComfort  
Time TempWeatherWind HumidityBarometerVisibility
5:53 AM
Sep 30
72 °FPartly cloudy.6 mph78%29.94 "Hg10 mi
4:53 AM73 °FPassing clouds.3 mph76%29.93 "Hg10 mi
3:53 AM72 °FPartly cloudy.3 mph78%29.93 "Hg10 mi
2:53 AM74 °FPartly cloudy.5 mph82%29.93 "Hg10 mi
1:53 AM74 °FPassing clouds.5 mph82%29.93 "Hg10 mi
12:53 AM75 °FMostly cloudy.5 mph88%29.95 "Hg10 mi
11:53 PM
Sep 29
76 °FMostly cloudy.No wind85%29.96 "Hg10 mi
10:53 PM77 °FPassing clouds.3 mph82%29.96 "Hg10 mi
9:53 PM78 °FPassing clouds.6 mph82%29.97 "Hg10 mi
8:53 PM79 °FPassing clouds.6 mph79%29.96 "Hg10 mi
7:53 PM79 °FOvercast.No wind79%29.95 "Hg10 mi
6:53 PM80 °FPassing clouds.5 mph76%29.93 "Hg10 mi
5:53 PM81 °FSunny.8 mph74%29.91 "Hg10 mi
4:53 PM83 °FScattered clouds.15 mph70%29.89 "Hg10 mi
3:53 PM86 °FPartly sunny.16 mph65%29.88 "Hg10 mi
2:53 PM87 °FBroken clouds.17 mph59%29.88 "Hg10 mi
1:53 PM86 °FSunny.15 mph63%29.89 "Hg10 mi
12:53 PM88 °FBroken clouds.12 mph57%29.91 "Hg10 mi
11:53 AM88 °FBroken clouds.13 mph57%29.92 "Hg10 mi
10:53 AM88 °FBroken clouds.10 mph55%29.94 "Hg10 mi
9:53 AM86 °FSunny.9 mph57%29.96 "Hg10 mi
8:53 AM84 °FBroken clouds.7 mph61%29.96 "Hg10 mi
7:53 AM75 °FBroken clouds.6 mph69%29.96 "Hg10 mi
Weather by CustomWeather, © 2014

See weather overviewHow to use our weather pages